DECAYED

STARLINK-3262, 50207 (Decayed)

Orbit data source: Space-Track

STARLINK-3262, 50207 was a payload satellite owned by SpaceX/Seattle (US) in LEO that was launched on Sat, 18 Dec 2021 UTC via an FALCON 9 launch vehicle from the Air Force Western Test Range (AFWTR). Payload-class satellites include a variety of spacecraft equipped with specific instruments for various scientific and technological missions. These include communications satellites like Starlink; space stations such as the ISS; scientific satellites like the Hubble; Earth observation satellites from companies like Planet Labs, Umbra, and HawkEye 360; GPS; miniature CubeSats for education and research; and military/defense satellites.

Not visible in the next 10 days
Identifier
50207, 2021-125BD
Orbit
Decayed
Country
Flag of USUS
Related business
Manufacturer
SpaceX/Seattle
Mission
Decayed Commercial Communications
Bus & Motor
STARLINK, Unknown motor
Mass
290 kg wet, ~270 kg dry
Launch date (UTC)
2021-12-18 (5 years ago)
Launch vehicle
FALCON 9
Launch site
Air Force Western Test Range (AFWTR)
Object type
Payload
Rocket body
Debris
Shape & HBR
Box + 1 Pan, 10.1 m
Radar Cross Section
13.562 m², Large (>1 m²)

Expand to show TLE details & history
Last TLE update: 4 months ago

TLE from 4 months ago
0 STARLINK-3262
1 50207U 21125BD  26056.58191069  .14659158  12662-4  16252-3 0  9992
2 50207  53.2033 269.4322 0003547 300.6405  59.4298 16.50179280233236
Epoch: 2026-02-25T13:57Z
TLE epoch observation values (Epoch: 2026-02-25T13:57:57.083Z)
Latitude
-0.00003°
Longitude
-95.50069°
Altitude
138.639 km
Speed
7.825 km/s
True Right ascension
17h 57m 43s
True Declination
0° 00' 00"
Sunlit
Object was in daylight at epoch
Visualization orbit readout
Latitude
Unknown
Longitude
Unknown
Altitude
Unknown
Speed
Unknown
Apparent Right ascension
Unknown
Apparent Declination
Unknown
Sunlit
N/A
Visualization observer readout
Local Sidereal Time
14:05:50
Azimuth
Unknown
Elevation
Unknown
Doppler factor
Unknown
Orbital elements
Apogee altitude
141.437 km
Perigee altitude
136.814 km
Semi-major axis
6,517.262 km
Eccentricity
0.00035
Inclination
53.2033°
RAAN
269.4322°
Arg. of periapsis
300.6405°
True anomaly
59.4648°
Mean anomaly
59.4298°
Eccentric anomaly
59.4473°
Mean motion
4.1252 °/min
Orbital period
87.27 mins
BSTAR
0.00016252
Loading maneuver chart data...
Computing Atmospheric mass density...
Loading historical data...
Loading historical data...
Loading historical data...
Loading historical data...
Loading historical data...
Loading historical data...
Loading historical data...

Documentation

Showing up to 5 results
|